Year,Month,Day,Hour,Minute,Value (Times are PST for temperature in C)
2013,10,29,00,00,8.70
2013,10,29,00,01,8.70
2013,10,29,00,02,8.60
2013,10,29,00,03,8.60
2013,10,29,00,04,8.70
2013,10,29,00,05,8.70
2013,10,29,00,06,8.70
2013,10,29,00,07,8.80
2013,10,29,00,08,8.80
2013,10,29,00,09,8.80
2013,10,29,00,10,8.80
2013,10,29,00,11,8.80
2013,10,29,00,12,8.70
2013,10,29,00,13,8.70
2013,10,29,00,14,8.60
2013,10,29,00,15,8.50
2013,10,29,00,16,8.50
2013,10,29,00,17,8.50
2013,10,29,00,18,8.40
2013,10,29,00,19,8.30
2013,10,29,00,20,8.30
2013,10,29,00,21,8.20
2013,10,29,00,22,8.20
2013,10,29,00,23,8.10
2013,10,29,00,24,8.00
2013,10,29,00,25,8.00
2013,10,29,00,26,7.90
2013,10,29,00,27,7.90
2013,10,29,00,28,7.80
2013,10,29,00,29,7.80
2013,10,29,00,30,7.80
2013,10,29,00,31,7.80
2013,10,29,00,32,7.70
2013,10,29,00,33,7.60
2013,10,29,00,34,7.50
2013,10,29,00,35,7.40
2013,10,29,00,36,7.30
2013,10,29,00,37,7.10
2013,10,29,00,38,7.10
2013,10,29,00,39,7.00
2013,10,29,00,40,7.00
2013,10,29,00,41,6.90
2013,10,29,00,42,6.90
2013,10,29,00,43,6.90
2013,10,29,00,44,6.80
2013,10,29,00,45,6.80
2013,10,29,00,46,6.80
2013,10,29,00,47,6.80
2013,10,29,00,48,6.70
2013,10,29,00,49,6.40
2013,10,29,00,50,6.30
2013,10,29,00,51,6.20
2013,10,29,00,52,6.20
2013,10,29,00,53,6.10
2013,10,29,00,54,6.10
2013,10,29,00,55,6.10
2013,10,29,00,56,6.10
2013,10,29,00,57,6.00
2013,10,29,00,58,6.00
2013,10,29,00,59,6.00
2013,10,29,01,00,6.00
2013,10,29,01,01,5.90
2013,10,29,01,02,5.90
2013,10,29,01,03,5.90
2013,10,29,01,04,5.90
2013,10,29,01,05,5.90
2013,10,29,01,06,6.00
2013,10,29,01,07,6.00
2013,10,29,01,08,6.00
2013,10,29,01,09,5.90
2013,10,29,01,10,5.90
2013,10,29,01,11,5.90
2013,10,29,01,12,5.90
2013,10,29,01,13,5.80
2013,10,29,01,14,5.70
2013,10,29,01,15,5.70
2013,10,29,01,16,5.60
2013,10,29,01,17,5.60
2013,10,29,01,18,5.60
2013,10,29,01,19,5.70
2013,10,29,01,20,5.70
2013,10,29,01,21,5.70
2013,10,29,01,22,5.80
2013,10,29,01,23,5.80
2013,10,29,01,24,5.70
2013,10,29,01,25,5.70
2013,10,29,01,26,5.70
2013,10,29,01,27,5.70
2013,10,29,01,28,5.80
2013,10,29,01,29,5.90
2013,10,29,01,30,5.90
2013,10,29,01,31,6.00
2013,10,29,01,32,6.10
2013,10,29,01,33,6.10
2013,10,29,01,34,6.10
2013,10,29,01,35,6.10
2013,10,29,01,36,6.10
2013,10,29,01,37,6.10
2013,10,29,01,38,6.00
2013,10,29,01,39,5.90
2013,10,29,01,40,5.80
2013,10,29,01,41,5.60
2013,10,29,01,42,5.50
2013,10,29,01,43,5.40
2013,10,29,01,44,5.40
2013,10,29,01,45,5.30
2013,10,29,01,46,5.30
2013,10,29,01,47,5.20
2013,10,29,01,48,5.20
2013,10,29,01,49,5.10
2013,10,29,01,50,5.10
2013,10,29,01,51,5.10
2013,10,29,01,52,5.10
2013,10,29,01,53,5.20
2013,10,29,01,54,5.30
2013,10,29,01,55,5.40
2013,10,29,01,56,5.60
2013,10,29,01,57,5.70
2013,10,29,01,58,5.80
2013,10,29,01,59,5.90
2013,10,29,02,00,6.00
2013,10,29,02,01,6.10
2013,10,29,02,02,6.20
2013,10,29,02,03,6.20
2013,10,29,02,04,6.30
2013,10,29,02,05,6.30
2013,10,29,02,06,6.30
2013,10,29,02,07,6.30
2013,10,29,02,08,6.30
2013,10,29,02,09,6.30
2013,10,29,02,10,6.20
2013,10,29,02,11,6.30
2013,10,29,02,12,6.30
2013,10,29,02,13,6.30
2013,10,29,02,14,6.30
2013,10,29,02,15,6.40
2013,10,29,02,16,6.40
2013,10,29,02,17,6.30
2013,10,29,02,18,6.10
2013,10,29,02,19,6.00
2013,10,29,02,20,5.80
2013,10,29,02,21,5.70
2013,10,29,02,22,5.50
2013,10,29,02,23,5.40
2013,10,29,02,24,5.20
2013,10,29,02,25,5.10
2013,10,29,02,26,5.00
2013,10,29,02,27,4.90
2013,10,29,02,28,4.80
2013,10,29,02,29,4.70
2013,10,29,02,30,4.70
2013,10,29,02,31,4.70
2013,10,29,02,32,4.70
2013,10,29,02,33,4.80
2013,10,29,02,34,4.80
2013,10,29,02,35,5.00
2013,10,29,02,36,5.20
2013,10,29,02,37,5.30
2013,10,29,02,38,5.50
2013,10,29,02,39,5.70
2013,10,29,02,40,5.70
2013,10,29,02,41,5.70
2013,10,29,02,42,5.60
2013,10,29,02,43,5.50
2013,10,29,02,44,5.40
2013,10,29,02,45,5.40
2013,10,29,02,46,5.50
2013,10,29,02,47,5.50
2013,10,29,02,48,5.50
2013,10,29,02,49,5.60
2013,10,29,02,50,5.60
2013,10,29,02,51,5.70
2013,10,29,02,52,5.80
2013,10,29,02,53,5.90
2013,10,29,02,54,6.00
2013,10,29,02,55,6.00
2013,10,29,02,56,6.00
2013,10,29,02,57,6.10
2013,10,29,02,58,6.10
2013,10,29,02,59,6.10
2013,10,29,03,00,6.20
2013,10,29,03,01,6.20
2013,10,29,03,02,6.10
2013,10,29,03,03,6.10
2013,10,29,03,04,6.00
2013,10,29,03,05,6.00
2013,10,29,03,06,5.90
2013,10,29,03,07,5.80
2013,10,29,03,08,5.70
2013,10,29,03,09,5.70
2013,10,29,03,10,5.60
2013,10,29,03,11,5.60
2013,10,29,03,12,5.60
2013,10,29,03,13,5.50
2013,10,29,03,14,5.50
2013,10,29,03,15,5.50
2013,10,29,03,16,5.60
2013,10,29,03,17,5.60
2013,10,29,03,18,5.70
2013,10,29,03,19,5.70
2013,10,29,03,20,5.80
2013,10,29,03,21,5.80
2013,10,29,03,22,5.90
2013,10,29,03,23,5.90
2013,10,29,03,24,5.90
2013,10,29,03,25,5.90
2013,10,29,03,26,6.00
2013,10,29,03,27,6.00
2013,10,29,03,28,6.00
2013,10,29,03,29,6.00
2013,10,29,03,30,6.00
2013,10,29,03,31,5.90
2013,10,29,03,32,5.90
2013,10,29,03,33,5.90
2013,10,29,03,34,5.80
2013,10,29,03,35,5.80
2013,10,29,03,36,5.80
2013,10,29,03,37,5.70
2013,10,29,03,38,5.70
2013,10,29,03,39,5.60
2013,10,29,03,40,5.60
2013,10,29,03,41,5.60
2013,10,29,03,42,5.50
2013,10,29,03,43,5.50
2013,10,29,03,44,5.50
2013,10,29,03,45,5.50
2013,10,29,03,46,5.60
2013,10,29,03,47,5.60
2013,10,29,03,48,5.70
2013,10,29,03,49,5.80
2013,10,29,03,50,5.90
2013,10,29,03,51,6.00
2013,10,29,03,52,6.00
2013,10,29,03,53,6.00
2013,10,29,03,54,6.00
2013,10,29,03,55,6.00
2013,10,29,03,56,6.10
2013,10,29,03,57,6.10
2013,10,29,03,58,6.10
2013,10,29,03,59,6.10
2013,10,29,04,00,6.20
2013,10,29,04,01,6.20
2013,10,29,04,02,6.20
2013,10,29,04,03,6.10
2013,10,29,04,04,6.10
2013,10,29,04,05,6.10
2013,10,29,04,06,6.10
2013,10,29,04,07,6.10
2013,10,29,04,08,6.10
2013,10,29,04,09,6.10
2013,10,29,04,10,6.10
2013,10,29,04,11,6.10
2013,10,29,04,12,6.10
2013,10,29,04,13,6.10
2013,10,29,04,14,6.10
2013,10,29,04,15,6.00
2013,10,29,04,16,6.00
2013,10,29,04,17,5.90
2013,10,29,04,18,5.90
2013,10,29,04,19,5.80
2013,10,29,04,20,5.80
2013,10,29,04,21,5.70
2013,10,29,04,22,5.70
2013,10,29,04,23,5.70
2013,10,29,04,24,5.70
2013,10,29,04,25,5.70
2013,10,29,04,26,5.70
2013,10,29,04,27,5.70
2013,10,29,04,28,5.70
2013,10,29,04,29,5.80
2013,10,29,04,30,5.80
2013,10,29,04,31,5.80
2013,10,29,04,32,5.90
2013,10,29,04,33,5.90
2013,10,29,04,34,5.90
2013,10,29,04,35,5.90
2013,10,29,04,36,5.90
2013,10,29,04,37,5.80
2013,10,29,04,38,5.80
2013,10,29,04,39,5.70
2013,10,29,04,40,5.70
2013,10,29,04,41,5.70
2013,10,29,04,42,5.70
2013,10,29,04,43,5.70
2013,10,29,04,44,5.70
2013,10,29,04,45,5.70
2013,10,29,04,46,5.70
2013,10,29,04,47,5.70
2013,10,29,04,48,5.70
2013,10,29,04,49,5.70
2013,10,29,04,50,5.70
2013,10,29,04,51,5.80
2013,10,29,04,52,5.80
2013,10,29,04,53,5.90
2013,10,29,04,54,5.90
2013,10,29,04,55,6.00
2013,10,29,04,56,6.00
2013,10,29,04,57,6.00
2013,10,29,04,58,6.10
2013,10,29,04,59,6.00
2013,10,29,05,00,6.00
2013,10,29,05,01,6.00
2013,10,29,05,02,5.90
2013,10,29,05,03,5.70
2013,10,29,05,04,5.70
2013,10,29,05,05,5.60
2013,10,29,05,06,5.50
2013,10,29,05,07,5.50
2013,10,29,05,08,5.50
2013,10,29,05,09,5.50
2013,10,29,05,10,5.50
2013,10,29,05,11,5.50
2013,10,29,05,12,5.50
2013,10,29,05,13,5.50
2013,10,29,05,14,5.50
2013,10,29,05,15,5.60
2013,10,29,05,16,5.60
2013,10,29,05,17,5.60
2013,10,29,05,18,5.70
2013,10,29,05,19,5.70
2013,10,29,05,20,5.70
2013,10,29,05,21,5.70
2013,10,29,05,22,5.70
2013,10,29,05,23,5.70
2013,10,29,05,24,5.70
2013,10,29,05,25,5.70
2013,10,29,05,26,5.70
2013,10,29,05,27,5.70
2013,10,29,05,28,5.70
2013,10,29,05,29,5.70
2013,10,29,05,30,5.80
2013,10,29,05,31,5.80
2013,10,29,05,32,5.90
2013,10,29,05,33,5.90
2013,10,29,05,34,5.90
2013,10,29,05,35,5.90
2013,10,29,05,36,5.90
2013,10,29,05,37,5.90
2013,10,29,05,38,5.90
2013,10,29,05,39,5.90
2013,10,29,05,40,5.90
2013,10,29,05,41,5.90
2013,10,29,05,42,5.90
2013,10,29,05,43,5.90
2013,10,29,05,44,5.90
2013,10,29,05,45,5.90
2013,10,29,05,46,5.90
2013,10,29,05,47,5.90
2013,10,29,05,48,5.80
2013,10,29,05,49,5.80
2013,10,29,05,50,5.70
2013,10,29,05,51,5.70
2013,10,29,05,52,5.70
2013,10,29,05,53,5.70
2013,10,29,05,54,5.70
2013,10,29,05,55,5.70
2013,10,29,05,56,5.80
2013,10,29,05,57,5.80
2013,10,29,05,58,5.90
2013,10,29,05,59,5.90
2013,10,29,06,00,5.90
2013,10,29,06,01,5.90
2013,10,29,06,02,5.90
2013,10,29,06,03,5.90
2013,10,29,06,04,5.90
2013,10,29,06,05,5.90
2013,10,29,06,06,5.90
2013,10,29,06,07,5.90
2013,10,29,06,08,6.00
2013,10,29,06,09,6.00
2013,10,29,06,10,6.00
2013,10,29,06,11,6.10
2013,10,29,06,12,6.10
2013,10,29,06,13,6.10
2013,10,29,06,14,6.10
2013,10,29,06,15,6.20
2013,10,29,06,16,6.20
2013,10,29,06,17,6.20
2013,10,29,06,18,6.20
2013,10,29,06,19,6.20
2013,10,29,06,20,6.20
2013,10,29,06,21,6.10
2013,10,29,06,22,6.10
2013,10,29,06,23,6.10
2013,10,29,06,24,6.10
2013,10,29,06,25,6.00
2013,10,29,06,26,6.00
2013,10,29,06,27,6.00
2013,10,29,06,28,6.10
2013,10,29,06,29,6.10
2013,10,29,06,30,6.10
2013,10,29,06,31,6.10
2013,10,29,06,32,6.10
2013,10,29,06,33,6.10
2013,10,29,06,34,6.20
2013,10,29,06,35,6.20
2013,10,29,06,36,6.20
2013,10,29,06,37,6.20
2013,10,29,06,38,6.20
2013,10,29,06,39,6.20
2013,10,29,06,40,6.20
2013,10,29,06,41,6.20
2013,10,29,06,42,6.20
2013,10,29,06,43,6.30
2013,10,29,06,44,6.30
2013,10,29,06,45,6.40
2013,10,29,06,46,6.40
2013,10,29,06,47,6.40
2013,10,29,06,48,6.40
2013,10,29,06,49,6.50
2013,10,29,06,50,6.60
2013,10,29,06,51,6.60
2013,10,29,06,52,6.60
2013,10,29,06,53,6.60
2013,10,29,06,54,6.60
2013,10,29,06,55,6.60
2013,10,29,06,56,6.60
2013,10,29,06,57,6.60
2013,10,29,06,58,6.70
2013,10,29,06,59,6.70
2013,10,29,07,00,6.70
2013,10,29,07,01,6.70
2013,10,29,07,02,6.80
2013,10,29,07,03,6.80
2013,10,29,07,04,6.80
2013,10,29,07,05,6.80
2013,10,29,07,06,6.80
2013,10,29,07,07,6.70
2013,10,29,07,08,6.70
2013,10,29,07,09,6.50
2013,10,29,07,10,6.40
2013,10,29,07,11,6.40
2013,10,29,07,12,6.30
2013,10,29,07,13,6.20
2013,10,29,07,14,6.20
2013,10,29,07,15,6.20
2013,10,29,07,16,6.20
2013,10,29,07,17,6.20
2013,10,29,07,18,6.20
2013,10,29,07,19,6.30
2013,10,29,07,20,6.30
2013,10,29,07,21,6.40
2013,10,29,07,22,6.40
2013,10,29,07,23,6.40
2013,10,29,07,24,6.40
2013,10,29,07,25,6.40
2013,10,29,07,26,6.30
2013,10,29,07,27,6.30
2013,10,29,07,28,6.20
2013,10,29,07,29,6.20
2013,10,29,07,30,6.20
2013,10,29,07,31,6.10
2013,10,29,07,32,6.00
2013,10,29,07,33,6.00
2013,10,29,07,34,6.00
2013,10,29,07,35,5.90
2013,10,29,07,36,5.90
2013,10,29,07,37,5.90
2013,10,29,07,38,5.90
2013,10,29,07,39,5.80
2013,10,29,07,40,5.70
2013,10,29,07,41,5.50
2013,10,29,07,42,5.20
2013,10,29,07,43,5.10
2013,10,29,07,44,4.90
2013,10,29,07,45,4.70
2013,10,29,07,46,4.60
2013,10,29,07,47,4.50
2013,10,29,07,48,4.40
2013,10,29,07,49,4.40
2013,10,29,07,50,4.40
2013,10,29,07,51,4.40
2013,10,29,07,52,4.40
2013,10,29,07,53,4.40
2013,10,29,07,54,4.30
2013,10,29,07,55,4.20
2013,10,29,07,56,4.20
2013,10,29,07,57,4.10
2013,10,29,07,58,4.10
2013,10,29,07,59,4.10
2013,10,29,08,00,4.10
2013,10,29,08,01,4.20
2013,10,29,08,02,4.20
2013,10,29,08,03,4.20
2013,10,29,08,04,4.30
2013,10,29,08,05,4.30
2013,10,29,08,06,4.30
2013,10,29,08,07,4.40
2013,10,29,08,08,4.40
2013,10,29,08,09,4.40
2013,10,29,08,10,4.40
2013,10,29,08,11,4.50
2013,10,29,08,12,4.50
2013,10,29,08,13,4.50
2013,10,29,08,14,4.50
2013,10,29,08,15,4.50
2013,10,29,08,16,4.50
2013,10,29,08,17,4.50
2013,10,29,08,18,4.50
2013,10,29,08,19,4.50
2013,10,29,08,20,4.50
2013,10,29,08,21,4.60
2013,10,29,08,22,4.60
2013,10,29,08,23,4.60
2013,10,29,08,24,4.60
2013,10,29,08,25,4.60
2013,10,29,08,26,4.60
2013,10,29,08,27,4.60
2013,10,29,08,28,4.60
2013,10,29,08,29,4.60
2013,10,29,08,30,4.50
2013,10,29,08,31,4.50
2013,10,29,08,32,4.40
2013,10,29,08,33,4.40
2013,10,29,08,34,4.40
2013,10,29,08,35,4.40
2013,10,29,08,36,4.50
2013,10,29,08,37,4.50
2013,10,29,08,38,4.50
2013,10,29,08,39,4.60
2013,10,29,08,40,4.60
2013,10,29,08,41,4.60
2013,10,29,08,42,4.70
2013,10,29,08,43,4.70
2013,10,29,08,44,4.80
2013,10,29,08,45,4.90
2013,10,29,08,46,4.90
2013,10,29,08,47,5.00
2013,10,29,08,48,5.10
2013,10,29,08,49,5.10
2013,10,29,08,50,5.20
2013,10,29,08,51,5.20
2013,10,29,08,52,5.30
2013,10,29,08,53,5.30
2013,10,29,08,54,5.30
2013,10,29,08,55,5.40
2013,10,29,08,56,5.40
2013,10,29,08,57,5.40
2013,10,29,08,58,5.50
2013,10,29,08,59,5.50
2013,10,29,09,00,5.50
2013,10,29,09,01,5.50
2013,10,29,09,02,5.50
2013,10,29,09,03,5.50
2013,10,29,09,04,5.50
2013,10,29,09,05,5.50
2013,10,29,09,06,5.60
2013,10,29,09,07,5.60
2013,10,29,09,08,5.60
2013,10,29,09,09,5.60
2013,10,29,09,10,5.60
2013,10,29,09,11,5.60
2013,10,29,09,12,5.60
2013,10,29,09,13,5.70
2013,10,29,09,14,5.70
2013,10,29,09,15,5.70
2013,10,29,09,16,5.80
2013,10,29,09,17,5.90
2013,10,29,09,18,6.00
2013,10,29,09,19,6.00
2013,10,29,09,20,6.10
2013,10,29,09,21,6.20
2013,10,29,09,22,6.20
2013,10,29,09,23,6.20
2013,10,29,09,24,6.30
2013,10,29,09,25,6.30
2013,10,29,09,26,6.40
2013,10,29,09,27,6.40
2013,10,29,09,28,6.40
2013,10,29,09,29,6.40
2013,10,29,09,30,6.50
2013,10,29,09,31,6.60
2013,10,29,09,32,6.60
2013,10,29,09,33,6.60
2013,10,29,09,34,6.70
2013,10,29,09,35,6.70
2013,10,29,09,36,6.70
2013,10,29,09,37,6.70
2013,10,29,09,38,6.70
2013,10,29,09,39,6.70
2013,10,29,09,40,6.80
2013,10,29,09,41,6.90
2013,10,29,09,42,7.00
2013,10,29,09,43,7.10
2013,10,29,09,44,7.30
2013,10,29,09,45,7.30
2013,10,29,09,46,7.50
2013,10,29,09,47,7.60
2013,10,29,09,48,7.70
2013,10,29,09,49,7.80
2013,10,29,09,50,7.90
2013,10,29,09,51,8.10
2013,10,29,09,52,8.20
2013,10,29,09,53,8.30
2013,10,29,09,54,8.40
2013,10,29,09,55,8.50
2013,10,29,09,56,8.60
2013,10,29,09,57,8.70
2013,10,29,09,58,8.80
2013,10,29,09,59,8.90
2013,10,29,10,00,8.90
2013,10,29,10,01,8.90
2013,10,29,10,02,9.00
2013,10,29,10,03,9.00
2013,10,29,10,04,9.10
2013,10,29,10,05,9.20
2013,10,29,10,06,9.20
2013,10,29,10,07,9.30
2013,10,29,10,08,9.40
2013,10,29,10,09,9.40
2013,10,29,10,10,9.50
2013,10,29,10,11,9.50
2013,10,29,10,12,9.60
2013,10,29,10,13,9.60
2013,10,29,10,14,9.70
2013,10,29,10,15,9.70
2013,10,29,10,16,9.80
2013,10,29,10,17,9.90
2013,10,29,10,18,9.90
2013,10,29,10,19,9.90
2013,10,29,10,20,9.90
2013,10,29,10,21,9.90
2013,10,29,10,22,9.90
2013,10,29,10,23,9.90
2013,10,29,10,24,10.00
2013,10,29,10,25,10.10
2013,10,29,10,26,10.20
2013,10,29,10,27,10.30
2013,10,29,10,28,10.30
2013,10,29,10,29,10.40
2013,10,29,10,30,10.40
2013,10,29,10,31,10.50
2013,10,29,10,32,10.60
2013,10,29,10,33,10.60
2013,10,29,10,34,10.60
2013,10,29,10,35,10.60
2013,10,29,10,36,10.70
2013,10,29,10,37,10.70
2013,10,29,10,38,10.80
2013,10,29,10,39,10.80
2013,10,29,10,40,10.90
2013,10,29,10,41,10.90
2013,10,29,10,42,10.90
2013,10,29,10,43,10.90
2013,10,29,10,44,10.90
2013,10,29,10,45,10.90
2013,10,29,10,46,11.00
2013,10,29,10,47,11.10
2013,10,29,10,48,11.10
2013,10,29,10,49,11.20
2013,10,29,10,50,11.20
2013,10,29,10,51,11.20
2013,10,29,10,52,11.30
2013,10,29,10,53,11.30
2013,10,29,10,54,11.40
2013,10,29,10,55,11.40
2013,10,29,10,56,11.40
2013,10,29,10,57,11.30
2013,10,29,10,58,11.30
2013,10,29,10,59,11.40
2013,10,29,11,00,11.50
2013,10,29,11,01,11.60
2013,10,29,11,02,11.60
2013,10,29,11,03,11.60
2013,10,29,11,04,11.60
2013,10,29,11,05,11.60
2013,10,29,11,06,11.60
2013,10,29,11,07,11.50
2013,10,29,11,08,11.40
2013,10,29,11,09,11.40
2013,10,29,11,10,11.40
2013,10,29,11,11,11.40
2013,10,29,11,12,11.40
2013,10,29,11,13,11.40
2013,10,29,11,14,11.40
2013,10,29,11,15,11.50
2013,10,29,11,16,11.60
2013,10,29,11,17,11.60
2013,10,29,11,18,11.60
2013,10,29,11,19,11.60
2013,10,29,11,20,11.50
2013,10,29,11,21,11.40
2013,10,29,11,22,11.40
2013,10,29,11,23,11.60
2013,10,29,11,24,11.60
2013,10,29,11,25,11.70
2013,10,29,11,26,11.80
2013,10,29,11,27,11.80
2013,10,29,11,28,11.80
2013,10,29,11,29,11.80
2013,10,29,11,30,11.90
2013,10,29,11,31,11.90
2013,10,29,11,32,12.00
2013,10,29,11,33,12.00
2013,10,29,11,34,12.00
2013,10,29,11,35,12.00
2013,10,29,11,36,12.00
2013,10,29,11,37,12.00
2013,10,29,11,38,12.00
2013,10,29,11,39,12.00
2013,10,29,11,40,12.00
2013,10,29,11,41,12.00
2013,10,29,11,42,12.10
2013,10,29,11,43,12.20
2013,10,29,11,44,12.20
2013,10,29,11,45,12.20
2013,10,29,11,46,12.20
2013,10,29,11,47,12.10
2013,10,29,11,48,12.00
2013,10,29,11,49,11.80
2013,10,29,11,50,11.80
2013,10,29,11,51,11.80
2013,10,29,11,52,11.80
2013,10,29,11,53,11.80
2013,10,29,11,54,11.90
2013,10,29,11,55,12.00
2013,10,29,11,56,12.00
2013,10,29,11,57,12.10
2013,10,29,11,58,12.10
2013,10,29,11,59,12.00
2013,10,29,12,00,12.00
2013,10,29,12,01,12.00
2013,10,29,12,02,12.00
2013,10,29,12,03,11.90
2013,10,29,12,04,11.90
2013,10,29,12,05,11.90
2013,10,29,12,06,11.90
2013,10,29,12,07,11.90
2013,10,29,12,08,11.90
2013,10,29,12,09,11.90
2013,10,29,12,10,12.00
2013,10,29,12,11,12.00
2013,10,29,12,12,12.10
2013,10,29,12,13,12.00
2013,10,29,12,14,12.00
2013,10,29,12,15,12.10
2013,10,29,12,16,12.10
2013,10,29,12,17,12.00
2013,10,29,12,18,12.00
2013,10,29,12,19,12.00
2013,10,29,12,20,12.10
2013,10,29,12,21,12.10
2013,10,29,12,22,12.20
2013,10,29,12,23,12.30
2013,10,29,12,24,12.50
2013,10,29,12,25,12.60
2013,10,29,12,26,12.60
2013,10,29,12,27,12.50
2013,10,29,12,28,12.60
2013,10,29,12,29,12.60
2013,10,29,12,30,12.60
2013,10,29,12,31,12.50
2013,10,29,12,32,12.40
2013,10,29,12,33,12.50
2013,10,29,12,34,12.60
2013,10,29,12,35,12.70
2013,10,29,12,36,12.70
2013,10,29,12,37,12.70
2013,10,29,12,38,12.70
2013,10,29,12,39,12.70
2013,10,29,12,40,12.70
2013,10,29,12,41,12.80
2013,10,29,12,42,12.70
2013,10,29,12,43,12.60
2013,10,29,12,44,12.60
2013,10,29,12,45,12.70
2013,10,29,12,46,12.70
2013,10,29,12,47,12.70
2013,10,29,12,48,12.70
2013,10,29,12,49,12.70
2013,10,29,12,50,12.80
2013,10,29,12,51,12.80
2013,10,29,12,52,12.80
2013,10,29,12,53,12.80
2013,10,29,12,54,12.90
2013,10,29,12,55,12.90
2013,10,29,12,56,13.00
2013,10,29,12,57,13.00
2013,10,29,12,58,13.00
2013,10,29,12,59,12.90
2013,10,29,13,00,12.90
2013,10,29,13,01,12.80
2013,10,29,13,02,12.80
2013,10,29,13,03,12.80
2013,10,29,13,04,12.80
2013,10,29,13,05,12.80
2013,10,29,13,06,12.90
2013,10,29,13,07,13.00
2013,10,29,13,08,13.10
2013,10,29,13,09,13.20
2013,10,29,13,10,13.30
2013,10,29,13,11,13.30
2013,10,29,13,12,13.30
2013,10,29,13,13,13.30
2013,10,29,13,14,13.40
2013,10,29,13,15,13.30
2013,10,29,13,16,13.30
2013,10,29,13,17,13.30
2013,10,29,13,18,13.30
2013,10,29,13,19,13.20
2013,10,29,13,20,13.10
2013,10,29,13,21,13.10
2013,10,29,13,22,13.10
2013,10,29,13,23,13.10
2013,10,29,13,24,13.20
2013,10,29,13,25,13.30
2013,10,29,13,26,13.30
2013,10,29,13,27,13.40
2013,10,29,13,28,13.50
2013,10,29,13,29,13.60
2013,10,29,13,30,13.70
2013,10,29,13,31,13.90
2013,10,29,13,32,13.90
2013,10,29,13,33,14.00
2013,10,29,13,34,14.00
2013,10,29,13,35,13.90
2013,10,29,13,36,13.90
2013,10,29,13,37,13.70
2013,10,29,13,38,13.60
2013,10,29,13,39,13.60
2013,10,29,13,40,13.60
2013,10,29,13,41,13.50
2013,10,29,13,42,13.40
2013,10,29,13,43,13.40
2013,10,29,13,44,13.30
2013,10,29,13,45,13.30
2013,10,29,13,46,13.30
2013,10,29,13,47,13.30
2013,10,29,13,48,13.20
2013,10,29,13,49,13.20
2013,10,29,13,50,13.30
2013,10,29,13,51,13.30
2013,10,29,13,52,13.30
2013,10,29,13,53,13.30
2013,10,29,13,54,13.40
2013,10,29,13,55,13.50
2013,10,29,13,56,13.60
2013,10,29,13,57,13.60
2013,10,29,13,58,13.70
2013,10,29,13,59,13.70
2013,10,29,14,00,13.60
2013,10,29,14,01,13.50
2013,10,29,14,02,13.40
2013,10,29,14,03,13.40
2013,10,29,14,04,13.30
2013,10,29,14,05,13.30
2013,10,29,14,06,13.30
2013,10,29,14,07,13.30
2013,10,29,14,08,13.40
2013,10,29,14,09,13.40
2013,10,29,14,10,13.30
2013,10,29,14,11,13.30
2013,10,29,14,12,13.30
2013,10,29,14,13,13.20
2013,10,29,14,14,13.20
2013,10,29,14,15,13.30
2013,10,29,14,16,13.30
2013,10,29,14,17,13.30
2013,10,29,14,18,13.30
2013,10,29,14,19,13.30
2013,10,29,14,20,13.30
2013,10,29,14,21,13.30
2013,10,29,14,22,13.30
2013,10,29,14,23,13.40
2013,10,29,14,24,13.40
2013,10,29,14,25,13.50
2013,10,29,14,26,13.50
2013,10,29,14,27,13.50
2013,10,29,14,28,13.60
2013,10,29,14,29,13.50
2013,10,29,14,30,13.40
2013,10,29,14,31,13.30
2013,10,29,14,32,13.20
2013,10,29,14,33,13.20
2013,10,29,14,34,13.00
2013,10,29,14,35,12.90
2013,10,29,14,36,12.80
2013,10,29,14,37,12.70
2013,10,29,14,38,12.60
2013,10,29,14,39,12.50
2013,10,29,14,40,12.50
2013,10,29,14,41,12.50
2013,10,29,14,42,12.50
2013,10,29,14,43,12.50
2013,10,29,14,44,12.40
2013,10,29,14,45,12.30
2013,10,29,14,46,12.30
2013,10,29,14,47,12.30
2013,10,29,14,48,12.30
2013,10,29,14,49,12.30
2013,10,29,14,50,12.30
2013,10,29,14,51,12.30
2013,10,29,14,52,12.30
2013,10,29,14,53,12.30
2013,10,29,14,54,12.30
2013,10,29,14,55,12.30
2013,10,29,14,56,12.30
2013,10,29,14,57,12.30
2013,10,29,14,58,12.30
2013,10,29,14,59,12.10
2013,10,29,15,00,12.10
2013,10,29,15,01,12.00
2013,10,29,15,02,12.00
2013,10,29,15,03,12.10
2013,10,29,15,04,12.20
2013,10,29,15,05,12.30
2013,10,29,15,06,12.30
2013,10,29,15,07,12.40
2013,10,29,15,08,12.50
2013,10,29,15,09,12.60
2013,10,29,15,10,12.70
2013,10,29,15,11,12.70
2013,10,29,15,12,12.70
2013,10,29,15,13,12.60
2013,10,29,15,14,12.60
2013,10,29,15,15,12.50
2013,10,29,15,16,12.50
2013,10,29,15,17,12.50
2013,10,29,15,18,12.50
2013,10,29,15,19,12.50
2013,10,29,15,20,12.60
2013,10,29,15,21,12.60
2013,10,29,15,22,12.60
2013,10,29,15,23,12.60
2013,10,29,15,24,12.60
2013,10,29,15,25,12.70
2013,10,29,15,26,12.70
2013,10,29,15,27,12.70
2013,10,29,15,28,12.60
2013,10,29,15,29,12.60
2013,10,29,15,30,12.60
2013,10,29,15,31,12.50
2013,10,29,15,32,12.50
2013,10,29,15,33,12.40
2013,10,29,15,34,12.30
2013,10,29,15,35,12.30
2013,10,29,15,36,12.20
2013,10,29,15,37,12.20
2013,10,29,15,38,12.20
2013,10,29,15,39,12.20
2013,10,29,15,40,12.20
2013,10,29,15,41,12.20
2013,10,29,15,42,12.20
2013,10,29,15,43,12.20
2013,10,29,15,44,12.20
2013,10,29,15,45,12.30
2013,10,29,15,46,12.30
2013,10,29,15,47,12.30
2013,10,29,15,48,12.30
2013,10,29,15,49,12.30
2013,10,29,15,50,12.30
2013,10,29,15,51,12.30
2013,10,29,15,52,12.30
2013,10,29,15,53,12.30
2013,10,29,15,54,12.40
2013,10,29,15,55,12.40
2013,10,29,15,56,12.40
2013,10,29,15,57,12.50
2013,10,29,15,58,12.50
2013,10,29,15,59,12.50
2013,10,29,16,00,12.50
2013,10,29,16,01,12.40
2013,10,29,16,02,12.40
2013,10,29,16,03,12.40
2013,10,29,16,04,12.30
2013,10,29,16,05,12.30
2013,10,29,16,06,12.20
2013,10,29,16,07,12.20
2013,10,29,16,08,12.30
2013,10,29,16,09,12.20
2013,10,29,16,10,12.10
2013,10,29,16,11,12.10
2013,10,29,16,12,12.10
2013,10,29,16,13,12.20
2013,10,29,16,14,12.20
2013,10,29,16,15,12.30
2013,10,29,16,16,12.30
2013,10,29,16,17,12.30
2013,10,29,16,18,12.30
2013,10,29,16,19,12.30
2013,10,29,16,20,12.20
2013,10,29,16,21,12.10
2013,10,29,16,22,12.10
2013,10,29,16,23,12.10
2013,10,29,16,24,12.10
2013,10,29,16,25,12.20
2013,10,29,16,26,12.20
2013,10,29,16,27,12.20
2013,10,29,16,28,12.20
2013,10,29,16,29,12.30
2013,10,29,16,30,12.30
2013,10,29,16,31,12.30
2013,10,29,16,32,12.30
2013,10,29,16,33,12.30
2013,10,29,16,34,12.40
2013,10,29,16,35,12.40
2013,10,29,16,36,12.40
2013,10,29,16,37,12.30
2013,10,29,16,38,12.30
2013,10,29,16,39,12.30
2013,10,29,16,40,12.30
2013,10,29,16,41,12.30
2013,10,29,16,42,12.20
2013,10,29,16,43,12.20
2013,10,29,16,44,12.10
2013,10,29,16,45,12.00
2013,10,29,16,46,11.90
2013,10,29,16,47,11.80
2013,10,29,16,48,11.80
2013,10,29,16,49,11.80
2013,10,29,16,50,11.70
2013,10,29,16,51,11.70
2013,10,29,16,52,11.60
2013,10,29,16,53,11.60
2013,10,29,16,54,11.60
2013,10,29,16,55,11.50
2013,10,29,16,56,11.40
2013,10,29,16,57,11.40
2013,10,29,16,58,11.40
2013,10,29,16,59,11.30
2013,10,29,17,00,11.20
2013,10,29,17,01,11.20
2013,10,29,17,02,11.10
2013,10,29,17,03,11.10
2013,10,29,17,04,11.00
2013,10,29,17,05,10.90
2013,10,29,17,06,10.90
2013,10,29,17,07,10.90
2013,10,29,17,08,10.90
2013,10,29,17,09,10.80
2013,10,29,17,10,10.80
2013,10,29,17,11,10.70
2013,10,29,17,12,10.70
2013,10,29,17,13,10.60
2013,10,29,17,14,10.60
2013,10,29,17,15,10.50
2013,10,29,17,16,10.40
2013,10,29,17,17,10.40
2013,10,29,17,18,10.30
2013,10,29,17,19,10.30
2013,10,29,17,20,10.20
2013,10,29,17,21,10.20
2013,10,29,17,22,10.10
2013,10,29,17,23,10.10
2013,10,29,17,24,10.00
2013,10,29,17,25,9.90
2013,10,29,17,26,9.90
2013,10,29,17,27,9.90
2013,10,29,17,28,9.80
2013,10,29,17,29,9.80
2013,10,29,17,30,9.70
2013,10,29,17,31,9.70
2013,10,29,17,32,9.70
2013,10,29,17,33,9.60
2013,10,29,17,34,9.60
2013,10,29,17,35,9.50
2013,10,29,17,36,9.50
2013,10,29,17,37,9.40
2013,10,29,17,38,9.40
2013,10,29,17,39,9.30
2013,10,29,17,40,9.30
2013,10,29,17,41,9.20
2013,10,29,17,42,9.20
2013,10,29,17,43,9.20
2013,10,29,17,44,9.20
2013,10,29,17,45,9.10
2013,10,29,17,46,9.10
2013,10,29,17,47,9.00